カタログに戻る

FENGYUN 1C DEB

運用中SSO
NORAD 31085·DEBRIS·🇨🇳 China

打ち上げ May 10, 1999 から Taiyuan Satellite Launch Center

Loading…

次のパス (今後24時間)

TLE

最新Source: Space-Track

元期: Sep 14, 2026, 01:44 UTC

1 31085U 99025BGF 26257.07227388  .00000101  00000-0  55027-4 0  9996
2 31085  98.9592 111.5460 0085928 297.4220 216.0124 14.30450864 16522

AllMySatでFENGYUN 1C DEBをリアルタイム追跡

Download on the App Store